Погода в Каунасе

Литва     54°53′48″N   23°53′11″E
темп.,
°C
ветер,
м/с
пор.,
м/с
влажн.,
%
обл.,
%
осадки,
мм/ч
давл.,
гПа
погр.,
м
15 мая, сб
сб1500:00+10всв119231 0.0 100410
03:00+9сз229422 0.0 100417
06:00+9сз239530 0.0 100540
09:00+13сз23835 0.0 1006342
12:00+17зсз33645 0.0 1006907
15:00+19зсз345811 0.0 10061352
18:00+17з467897 0.6 1006542
21:00+13з369385 1.6 1007120
16 мая, вс
вс1600:00+10з369889 0.0 1008148
03:00+10з2495100 0.0 1009137
06:00+10ююз229483 0.0 100966
09:00+13ю3584100 0.0 1009443
12:00+17ююз3462100 0.0 1009958
15:00+19ююв355296 0.0 10081613
18:00+16ю487495 0.2 1007192
21:00+14вюв3885100 1.1 1006173
17 мая, пн
пн1700:00+13вюв41292100 1.2 1005377
03:00+13юв51196100 3.4 1004435
06:00+13ююв51196100 0.8 1004514
09:00+12зюз4796100 4.3 1005383
12:00+14з237861 0.5 1007825
15:00+17с336314 0.5 10061203
18:00+17св3364100 0.0 10061029
21:00+13св3484100 0.0 100556
18 мая, вт
вт1800:00+11св2391100 0.0 100447
03:00+10с229352 0.0 100319
06:00+9ссз349697 0.0 100270
09:00+13сз237860 0.0 1002393
12:00+17сз33645 0.0 10021000
15:00+13з9108574 0.6 1003631
18:00+10з51089100 0.0 1004491
21:00+10з51288100 0.1 1005608
19 мая, ср
ср1900:00+8з499427 0.0 1006455
03:00+6зюз399819 0.0 1007227
06:00+8зюз4995100 0.0 1006433
09:00+11зюз698073 0.1 1007716
12:00+13з797143 0.3 10081237
15:00+14з796899 0.8 10091434
18:00+14з710652 0.3 10091436
21:00+9з49760 0.3 1010300